STARLINK-11455, 62463

Orbit data source: Space-Track

STARLINK-11455, 62463 is a payload satellite owned by SpaceX/Seattle (US) in LEO that was launched on Tue, 31 Dec 2024 UTC via an FALCON 9 launch vehicle from the Air Force Eastern Test Range (AFETR). Payload-class satellites include a variety of spacecraft equipped with specific instruments for various scientific and technological missions. These include communications satellites like Starlink; space stations such as the ISS; scientific satellites like the Hubble; Earth observation satellites from companies like Planet Labs, Umbra, and HawkEye 360; GPS; miniature CubeSats for education and research; and military/defense satellites.

Loading next visibility...
Identifier
62463, 2024-254B
Orbit
LEO
Country
Flag of USUS
Related business
Manufacturer
SpaceX/Seattle
Mission
Operational Commercial Communications
Bus & Motor
STARLINK V2MD, Unknown motor
Mass
960 kg wet, ~910 kg dry
Launch date (UTC)
2024-12-31 (9 months ago)
Launch vehicle
FALCON 9
Launch site
Air Force Eastern Test Range (AFETR)
Object type
Payload
Rocket body
Debris
Shape & HBR
Box + 2 Pan, 14.5 m
Radar Cross Section
36.964 m², Large (>1 m²)

Expand to show TLE details & history
Last TLE update: 21 hours ago

TLE from 21 hours ago
0 STARLINK-11455
1 62463U 24254B   25259.52021112  .00214544  00000-0  16279-2 0  9992
2 62463  42.9996 193.2888 0001574 286.9990  73.0705 15.70909456 42005
Epoch: 2025-09-16T12:29Z
TLE epoch observation values (Epoch: 2025-09-16T12:29:06.24Z)
Latitude
-0.00004°
Longitude
10.30342°
Altitude
355.759 km
Speed
7.698 km/s
True Right ascension
12h 53m 09s
True Declination
0° 00' 00"
Sunlit
Object was in daylight at epoch
Visualization orbit readout
Latitude
Unknown
Longitude
Unknown
Altitude
Unknown
Speed
Unknown
Apparent Right ascension
Unknown
Apparent Declination
Unknown
Sunlit
N/A
Visualization observer readout
Local Sidereal Time
02:09:30
Azimuth
Unknown
Elevation
Unknown
Doppler factor
Unknown
Orbital elements
Apogee altitude
359.339 km
Perigee altitude
357.218 km
Semi-major axis
6,736.415 km
Eccentricity
0.00016
Inclination
42.9996°
RAAN
193.2888°
Arg. of periapsis
286.999°
True anomaly
73.08776°
Mean anomaly
73.0705°
Eccentric anomaly
73.07913°
Mean motion
3.92554 °/min
Orbital period
91.71 mins
BSTAR
0.0016279
Loading maneuver chart data...
Computing Atmospheric mass density...
Loading historical data...
Loading historical data...
Loading historical data...
Loading historical data...
Loading historical data...
Loading historical data...
Loading historical data...

Documentation

Showing up to 5 results
|